Regional Weather Roundup
Issued by NWS

Current Version | Previous Version | Text Only | Print | Product List | Glossary Off
Versions: 1 2 3 4 5 6 7 8 9 10 11 12 13 14 15 16 17 18 19 20 21 22 23 24 25 26 27 28 29 30 31 32 33 34 35 36 37 38 39 40 41 42 43 44 45 46 47 48 49 50

000
ASUS44 KBMX 050810
RWRAL

ALABAMA REGIONAL WEATHER ROUNDUP
NATIONAL WEATHER SERVICE BIRMINGHAM AL
300 AM CDT WED AUG 05 2015

NOTE: "FAIR" INDICATES FEW OR NO CLOUDS BELOW 12,000 FEET
WITH NO SIGNIFICANT WEATHER AND/OR OBSTRUCTIONS TO VISIBILITY.

THE REMARK "TC" DENOTES TEMPERATURE IN DEGREES CELSIUS.

ALZ001>011-014-016>018-020-050900-
NORTH ALABAMA

CITY           SKY/WX    TMP DP  RH WIND       PRES   REMARKS
MUSCLE SHOALS  MOCLDY    76  71  85 CALM      30.01S
HUNTSVILLE     CLOUDY    78  70  76 CALM      30.00S
DECATUR        MOCLDY    75  71  87 CALM      30.00F
HALEYVILLE     FAIR      71  70  97 CALM      30.04S
GADSDEN        PTCLDY    72  63  73 CALM      29.99S
$$

ALZ012-013-022-023-030>036-040>044-050900-
WEST CENTRAL ALABAMA

CITY           SKY/WX    TMP DP  RH WIND       PRES   REMARKS
TUSCALOOSA     CLEAR     74  69  85 CALM      30.00S
$$

ALZ015-024>027-033>036-040>044-050900-
CENTRAL ALABAMA

CITY           SKY/WX    TMP DP  RH WIND       PRES   REMARKS
BIRMINGHAM     CLEAR     75  70  84 CALM      30.03S
MONTGOMERY     CLEAR     76  70  82 CALM      30.02S
SHELBY CO ARPT CLEAR     76  68  76 SW5       30.02S
MAXWELL AFB    CLEAR     74  70  88 S3        30.01S
GREENVILLE     FAIR      74  69  85 CALM      30.03
$$

ALZ019-021-028-029-037-038-045>048-050900-
EAST CENTRAL ALABAMA

CITY           SKY/WX    TMP DP  RH WIND       PRES   REMARKS
ANNISTON       CLEAR     70  67  90 CALM      30.01F
ALEXANDER CITY CLEAR     72  67  85 CALM      30.03F
AUBURN           N/A    N/A N/A N/A MISG        N/A
$$

ALZ051>064-050900-
SOUTHWEST ALABAMA

CITY           SKY/WX    TMP DP  RH WIND       PRES   REMARKS
MOBILE         PTCLDY    80  76  87 S6        30.00F
BROOKLEY FIELD MOCLDY    81  75  82 CALM      30.01F
EVERGREEN      PTCLDY    72  70  93 CALM      30.03S
$$

ALZ049-050-065>069-050900-
SOUTHEAST ALABAMA

CITY           SKY/WX    TMP DP  RH WIND       PRES   REMARKS
DOTHAN         CLEAR     76  74  93 SW3       30.06F
OZARK          CLEAR     75  74  97 SW2       30.03S
TROY           CLEAR     72  71  97 S3        30.03F
EUFAULA        FAIR      74  72  93 CALM      30.02S
$$



USA.gov is the U.S. government's official web portal to all federal, state and local government web resources and services.